Airfield :
LOGIN :

Register | Disclaimer

   EN    FR    IT 

 










Legend :    VFR   Marginal VFR   IFR   Intensive IFR   Very Intensive IFR
Visi :
Ceiling :
>= 8 km
>= 3000ft
5 to 8 km
1000 to 3000 ft
1500m to 5 km
500 to 1000 ft
800 to 1500m
200 to 500 ft
< 800m
< 200 ft
Symbols :   Thunderstorms  Fog  Heavy snow  Heavy precipitations  Wind > 20 kt
SIGMETs :     Misc.  Thunderstorms  Icing  Turbulence  Mountain Waves  Volcanic Ashes







- Airport Elevation : 125 ft
- IATA code : MGL


EDLN - Mönchengladbach

CURRENT METAR :
  • 171050Z 13007KT 110V170 CAVOK 10/03 Q1022

EXPIRED METARs :
  • 171020Z 14006KT 110V180 CAVOK 10/04 Q1022
  • 170950Z 13006KT 110V180 CAVOK 08/03 Q1022
  • 170920Z 13006KT CAVOK 07/03 Q1022
  • 170850Z 12006KT CAVOK 06/03 Q1022
  • 170820Z 13005KT CAVOK 04/02 Q1022

TAF TAF EDLN
Valid from the 17 at 09:00 until the 17 at 18:00 UTC


170800Z 1709/1718 14007KT CAVOK
No reported NOTAMs for that airfield.



MET'MAP, your aeronautical weather chart ! - Copyright ORBIFLY December 2007 - Disclaimer

ORBIFLY MET'MAP TEAM :

Programming & Development : Alexandra Zaïnal
Concept & Development : Baudouin d'Aumeries
Co-Development & Prog : Marc-Olivier Méhu
Technical & hardware support : Manuel Goepfert

Contact : metmap@orbifly.com




SOURCES & CREDITS :

   NOAA